Location: Melara
(45.0500°N, 11.1833°E)
Time: 17:42:32
(UTC+00:00)

BlueWalker 3 - Visible Passes

Search period start: 27 February 2024 00:00
Search period end: 08 March 2024 00:00
Orbit: 486 x 500 km, 53.2° (Epoch: 26 February)

Date Brightness Start Highest point End Pass type
(mag) Time Alt. Az. Time Alt. Az. Time Alt. Az.
27 Feb 3.6 17:34:45 10° NW 17:37:50 23° N 17:40:54 10° NE visible
27 Feb 3.4 19:13:18 10° NW 19:15:48 31° NNW 19:15:48 31° NNW visible
28 Feb 2.7 18:49:28 10° NW 18:53:00 37° NNE 18:53:00 37° NNE visible
29 Feb 2.7 18:25:35 10° NW 18:29:07 36° NNE 18:30:12 30° ENE visible
29 Feb 4.8 20:03:51 10° WNW 20:04:41 16° WNW 20:04:41 16° WNW visible
01 Mar 2.8 18:01:41 10° NW 18:05:13 36° NNE 18:07:26 19° ENE visible
01 Mar 3.9 19:39:57 10° WNW 19:41:55 28° WNW 19:41:55 28° WNW visible
02 Mar 2.8 17:37:47 10° NW 17:41:18 35° NNE 17:44:44 10° E visible
02 Mar 2.6 19:16:02 10° WNW 19:19:13 49° WSW 19:19:13 49° WSW visible
03 Mar 2.3 18:52:06 10° WNW 18:55:48 57° SW 18:56:35 45° S visible
04 Mar 2.3 18:28:08 10° WNW 18:31:52 59° SW 18:34:01 23° SE visible
05 Mar 2.3 18:04:10 10° WNW 18:07:54 61° SW 18:11:35 10° SE visible
06 Mar 2.3 17:40:11 10° WNW 17:43:56 63° SW 17:47:39 10° SE visible
